G1SCQ Weather Reports


Display with metric or nautical units.
time (UTC)temp
F
wind
direction
speed
MPH
gust
MPH
rain 1hr
in
rain 24hr
in
rain mn
in
humidity
%
barometer
mb
20260508020004 40 315 0.0 1.0 0.00 0.00 0.00 97 1016.7
20260508015404 40 0 0.0 0.0 0.00 0.00 0.00 98 1016.5
20260508014504 40 0 0.0 0.0 0.00 0.00 0.00 97 1016.6
20260508013603 40 0 0.0 0.0 0.00 0.00 0.00 97 1016.6
20260508012703 41 0 0.0 0.0 0.00 0.00 0.00 97 1016.6
20260508011803 41 0 0.0 0.0 0.00 0.00 0.00 97 1016.5
20260508010903 41 0 0.0 0.0 0.00 0.00 0.00 97 1016.4
20260508010004 42 0 0.0 0.0 0.00 0.00 0.00 97 1016.5
20260508005403 42 0 0.0 0.0 0.00 0.00 0.00 96 1016.6
20260508004505 42 0 0.0 0.0 0.00 0.00 0.00 96 1016.7
20260508003603 42 0 0.0 0.0 0.00 0.00 0.00 96 1016.7
20260508002703 42 0 0.0 0.0 0.00 0.00 0.00 96 1016.7
20260508001803 42 0 0.0 0.0 0.00 0.00 0.00 95 1016.6
20260508000903 42 0 0.0 0.0 0.00 0.00 0.00 95 1016.8
20260508000003 43 0 0.0 0.0 0.00 0.00 0.00 94 1016.7
20260507235405 43 0 0.0 0.0 0.00 0.00 0.00 94 1016.9
20260507234503 43 0 0.0 0.0 0.00 0.00 0.00 94 1016.7
20260507233603 43 199 0.0 1.0 0.00 0.00 0.00 93 1017.0
20260507232703 43 228 0.0 1.0 0.00 0.00 0.00 94 1017.1
20260507231803 44 213 0.0 1.0 0.00 0.00 0.00 93 1017.0
20260507230903 44 213 0.0 1.0 0.00 0.00 0.00 93 1017.0
20260507230004 44 244 0.0 1.0 0.00 0.00 0.00 92 1016.8
20260507225403 44 115 0.0 1.0 0.00 0.00 0.00 92 1017.0
20260507224504 44 0 0.0 0.0 0.00 0.00 0.00 91 1017.1
20260507223603 45 88 0.0 1.0 0.00 0.00 0.00 91 1017.1
20260507222703 45 209 0.0 3.0 0.00 0.00 0.00 91 1017.0
20260507221803 45 230 0.0 2.0 0.00 0.00 0.00 90 1016.9
20260507220903 45 220 0.0 1.0 0.00 0.00 0.00 90 1016.9
20260507220003 46 209 0.0 1.0 0.00 0.00 0.00 90 1017.1
20260507215403 46 181 0.0 2.0 0.00 0.00 0.00 89 1017.1
20260507214503 46 276 0.0 1.0 0.00 0.00 0.00 89 1016.8
20260507213603 46 202 0.0 1.0 0.00 0.00 0.00 89 1016.7
20260507212703 46 0 0.0 0.0 0.00 0.00 0.00 88 1016.8
20260507211805 46 201 0.0 1.0 0.00 0.00 0.00 87 1017.1
20260507210905 47 202 0.0 1.0 0.00 0.00 0.00 87 1016.9
20260507210006 47 147 0.0 1.0 0.00 0.00 0.00 86 1016.7
20260507205406 47 196 0.0 2.0 0.00 0.00 0.00 85 1016.9
20260507204506 48 213 0.0 2.0 0.00 0.00 0.00 85 1016.4
20260507203606 48 204 1.0 3.0 0.00 0.00 0.00 84 1016.6
20260507202705 48 208 1.0 2.0 0.00 0.00 0.00 83 1016.4
20260507201806 49 207 1.0 3.0 0.00 0.00 0.00 83 1016.3
20260507200905 49 179 0.0 3.0 0.00 0.00 0.00 82 1016.2
20260507200006 50 202 0.0 2.0 0.00 0.00 0.00 81 1016.1
20260507195406 50 180 1.0 4.0 0.00 0.00 0.00 81 1016.0
20260507194505 50 181 1.0 4.0 0.00 0.00 0.00 80 1016.1
20260507193605 50 163 1.0 4.0 0.00 0.00 0.00 79 1016.1
20260507192705 51 197 1.0 4.0 0.00 0.00 0.00 79 1016.1
20260507191805 51 197 1.0 4.0 0.00 0.00 0.00 78 1016.2
20260507190905 52 184 1.0 4.0 0.00 0.00 0.00 77 1016.1
20260507190006 52 205 2.0 8.0 0.00 0.00 0.00 77 1016.1
20260507185405 52 208 1.0 6.0 0.00 0.00 0.00 77 1015.9
20260507184505 52 202 1.0 6.0 0.00 0.00 0.00 76 1016.0
20260507183605 52 193 1.0 6.0 0.00 0.00 0.00 76 1016.0
20260507182705 52 197 1.0 9.0 0.00 0.00 0.00 75 1015.9
20260507181805 53 171 1.0 9.0 0.00 0.00 0.00 74 1015.8
20260507180905 53 212 1.0 7.0 0.00 0.00 0.00 73 1015.8
20260507180005 54 233 1.0 7.0 0.00 0.00 0.00 72 1015.9
20260507175405 54 190 1.0 6.0 0.00 0.00 0.00 72 1015.7
20260507174505 54 198 1.0 3.0 0.00 0.00 0.00 70 1015.7
20260507173605 54 186 1.0 4.0 0.00 0.00 0.00 70 1015.5
20260507172705 54 188 1.0 6.0 0.00 0.00 0.00 69 1015.6
20260507171805 55 203 2.0 6.0 0.00 0.00 0.00 68 1015.8
20260507170905 55 211 2.0 7.0 0.00 0.00 0.00 63 1015.6
20260507170005 55 210 2.0 4.0 0.00 0.00 0.00 63 1015.7
20260507165405 55 217 1.0 4.0 0.00 0.00 0.00 63 1015.7
20260507164506 56 208 1.0 4.0 0.00 0.00 0.00 62 1015.7
20260507163605 56 181 1.0 3.0 0.00 0.00 0.00 61 1015.6
20260507162705 56 206 1.0 6.0 0.00 0.00 0.00 61 1015.7
20260507161805 57 203 1.0 3.0 0.00 0.00 0.00 60 1015.6
20260507160905 57 204 1.0 6.0 0.00 0.00 0.00 59 1015.8
20260507160005 57 201 0.0 4.0 0.00 0.00 0.00 59 1015.8
20260507155405 57 214 1.0 4.0 0.00 0.00 0.00 58 1015.8
20260507154505 59 178 1.0 2.0 0.00 0.00 0.00 57 1015.8
20260507153605 58 205 1.0 4.0 0.00 0.00 0.00 58 1015.9
20260507152705 58 221 1.0 4.0 0.00 0.00 0.00 59 1015.8
20260507151805 57 197 1.0 3.0 0.00 0.00 0.00 60 1016.0
20260507150905 57 195 1.0 3.0 0.00 0.00 0.00 60 1016.0
20260507150006 56 191 1.0 4.0 0.00 0.00 0.00 63 1015.9
20260507145405 56 194 1.0 3.0 0.00 0.00 0.00 62 1015.9
20260507144505 56 206 0.0 2.0 0.00 0.00 0.00 60 1015.9
20260507143605 57 202 0.0 2.0 0.00 0.00 0.00 60 1015.9
20260507142705 57 209 1.0 2.0 0.00 0.00 0.00 60 1015.9
20260507141805 58 202 1.0 3.0 0.00 0.00 0.00 58 1015.9
20260507140905 58 211 1.0 3.0 0.00 0.00 0.00 59 1016.1
20260507140006 56 205 1.0 2.0 0.00 0.00 0.00 61 1016.1
20260507135405 57 306 0.0 2.0 0.00 0.00 0.00 61 1015.9
20260507134505 57 18 0.0 3.0 0.00 0.00 0.00 62 1016.1
20260507133605 57 6 1.0 4.0 0.00 0.00 0.00 66 1016.0
20260507132705 58 86 1.0 3.0 0.00 0.00 0.00 62 1016.1
20260507131805 59 65 1.0 4.0 0.00 0.00 0.00 66 1016.1
20260507130905 57 357 1.0 6.0 0.00 0.00 0.00 66 1016.2
20260507130005 59 40 1.0 2.0 0.00 0.00 0.00 66 1016.3
20260507125405 56 343 1.0 4.0 0.00 0.00 0.00 67 1016.2
20260507124505 56 344 1.0 6.0 0.00 0.00 0.00 71 1016.4
20260507123605 56 18 1.0 6.0 0.00 0.00 0.00 71 1016.2
20260507122706 57 16 1.0 4.0 0.00 0.00 0.00 69 1016.4
20260507121805 57 335 2.0 6.0 0.00 0.00 0.00 70 1016.4
20260507120904 55 336 2.0 6.0 0.00 0.00 0.00 73 1016.4
20260507120005 55 339 2.0 4.0 0.00 0.00 0.00 72 1016.6
20260507115405 55 332 2.0 7.0 0.00 0.00 0.00 72 1016.6
20260507114504 53 349 2.0 6.0 0.00 0.00 0.00 75 1016.7
20260507113605 52 336 2.0 6.0 0.00 0.00 0.00 75 1016.7
20260507112704 55 333 2.0 6.0 0.00 0.00 0.00 73 1016.6
20260507111804 55 349 2.0 6.0 0.00 0.00 0.00 70 1016.7
20260507110905 54 336 3.0 6.0 0.00 0.00 0.00 72 1016.8
20260507110005 54 334 2.0 4.0 0.00 0.00 0.00 72 1016.6
20260507105404 53 338 2.0 4.0 0.00 0.00 0.00 73 1017.1
20260507104505 53 337 2.0 7.0 0.00 0.00 0.00 73 1016.8
20260507103604 53 352 1.0 4.0 0.00 0.00 0.00 75 1017.0
20260507102705 51 344 2.0 6.0 0.00 0.00 0.00 75 1017.0
20260507101804 53 318 2.0 6.0 0.00 0.00 0.00 74 1017.0
20260507100905 52 308 2.0 4.0 0.00 0.00 0.00 72 1016.9
20260507100005 52 333 2.0 4.0 0.00 0.00 0.00 73 1016.9
20260507095404 51 322 2.0 4.0 0.00 0.00 0.00 75 1016.9
20260507094505 52 342 1.0 3.0 0.00 0.00 0.00 75 1016.8
20260507093604 51 321 1.0 4.0 0.00 0.00 0.00 75 1016.8
20260507092704 51 318 1.0 4.0 0.00 0.00 0.00 75 1016.9
20260507091804 53 295 2.0 6.0 0.00 0.00 0.00 74 1016.9
20260507090904 52 272 1.0 3.0 0.00 0.00 0.00 73 1016.8
20260507090005 51 267 0.0 2.0 0.00 0.00 0.00 74 1016.8
20260507085404 50 265 0.0 2.0 0.00 0.00 0.00 74 1017.0
20260507084504 50 216 1.0 2.0 0.00 0.00 0.00 75 1016.7
20260507083604 52 218 1.0 3.0 0.00 0.00 0.00 73 1016.8
20260507082705 52 213 1.0 3.0 0.00 0.00 0.00 72 1016.9
20260507081804 51 211 1.0 3.0 0.00 0.00 0.00 75 1016.9
20260507080904 51 189 0.0 2.0 0.00 0.00 0.00 75 1016.8
20260507080005 50 322 0.0 1.0 0.00 0.00 0.00 75 1016.8
20260507075405 50 181 0.0 1.0 0.00 0.00 0.00 77 1016.9
20260507074504 49 181 0.0 1.0 0.00 0.00 0.00 80 1016.3
20260507073604 49 187 0.0 3.0 0.00 0.00 0.00 80 1016.4
20260507072704 48 148 0.0 1.0 0.00 0.00 0.00 82 1016.3
20260507071804 48 115 0.0 2.0 0.00 0.00 0.00 82 1016.5
20260507070904 48 211 1.0 2.0 0.00 0.00 0.00 82 1016.4
20260507070008 47 203 1.0 3.0 0.00 0.00 0.00 84 1016.3
20260507065404 47 204 1.0 2.0 0.00 0.00 0.00 85 1016.5
20260507064504 46 192 1.0 3.0 0.00 0.00 0.00 87 1016.5
20260507063604 45 201 0.0 1.0 0.00 0.00 0.00 91 1016.3
20260507062704 44 215 1.0 4.0 0.00 0.00 0.00 97 1016.2
20260507061804 43 224 0.0 2.0 0.00 0.00 0.00 99 1016.5
20260507060904 42 0 0.0 0.0 0.00 0.00 0.00 99 1016.3
20260507060004 41 0 0.0 0.0 0.00 0.00 0.00 99 1016.4
20260507055404 41 0 0.0 0.0 0.00 0.00 0.00 99 1016.4
20260507054504 41 0 0.0 0.0 0.00 0.00 0.00 98 1016.0
20260507053604 41 0 0.0 0.0 0.00 0.00 0.00 99 1016.2
20260507052704 41 0 0.0 0.0 0.00 0.00 0.00 98 1016.2
20260507051804 40 0 0.0 0.0 0.00 0.00 0.00 99 1016.0
20260507050904 39 0 0.0 0.0 0.00 0.00 0.00 98 1016.0
20260507050005 38 0 0.0 0.0 0.00 0.00 0.00 98 1015.9
20260507045404 38 0 0.0 0.0 0.00 0.00 0.00 98 1015.9
20260507044504 39 0 0.0 0.0 0.00 0.00 0.00 98 1015.9
20260507043604 39 0 0.0 0.0 0.00 0.00 0.00 98 1015.9
20260507042704 39 0 0.0 0.0 0.00 0.00 0.00 98 1015.9
20260507041804 40 0 0.0 0.0 0.00 0.00 0.00 98 1015.9
20260507040904 40 0 0.0 0.0 0.00 0.00 0.00 98 1015.8
20260507040004 40 0 0.0 0.0 0.00 0.00 0.00 97 1015.7
20260507035404 40 0 0.0 0.0 0.00 0.00 0.00 97 1015.6
20260507034504 40 0 0.0 0.0 0.00 0.00 0.00 97 1015.7
20260507033604 41 0 0.0 0.0 0.00 0.00 0.00 97 1015.6
20260507032704 42 0 0.0 0.0 0.00 0.00 0.00 97 1015.6
20260507031803 42 0 0.0 0.0 0.00 0.00 0.00 97 1015.6
20260507030904 42 0 0.0 0.0 0.00 0.00 0.00 96 1015.6
20260507030004 42 0 0.0 0.0 0.00 0.00 0.00 96 1015.6
20260507025404 42 0 0.0 0.0 0.00 0.00 0.00 96 1015.7
20260507024503 42 0 0.0 0.0 0.00 0.00 0.00 95 1015.6
20260507023603 42 316 0.0 1.0 0.00 0.00 0.00 95 1015.6
20260507022704 42 0 0.0 0.0 0.00 0.00 0.00 94 1015.5
20260507021803 41 0 0.0 0.0 0.00 0.00 0.00 93 1015.3
20260507020904 42 0 0.0 0.0 0.00 0.00 0.00 93 1015.5